When you browse on this site, cookies collect data to enhance your experience and personalize the content and advertising you see.
Visit our Privacy Policy to learn more. By continuing to use the site, you agree to this use of cookies and data.
  • In Latvia
  • List of Countries
  • For 7 days
  • Water Temperature
  • Weather Map
  • Weather Widgets
  • user-avatar
    Login

    Hourly Weather Monthey

    Today, 18 August, Sunday

    Time Temperature Precipitation Wind Pressure Humidity
    00:00 +19°C° 0 mm 2 mps 698 mmHg 64%
    01:00 +19°C° 0 mm 2 mps 698 mmHg 65%
    02:00 +19°C° 0 mm 2 mps 698 mmHg 65%
    03:00 +19°C° 0 mm 2 mps 698 mmHg 65%
    04:00 +19°C° 0 mm 2 mps 698 mmHg 64%
    05:00 +20°C° 0 mm 2 mps 698 mmHg 63%
    06:00 +21°C° 0 mm 2 mps 698 mmHg 62%
    07:00 +25°C° 0 mm 2 mps 698 mmHg 55%
    08:00 +27°C° 0 mm 2 mps 698 mmHg 47%
    09:00 +29°C° 0 mm 2 mps 698 mmHg 40%
    10:00 +30°C° 0 mm 2 mps 698 mmHg 38%
    11:00 +31°C° 0 mm 2 mps 699 mmHg 36%
    12:00 +32°C° 0 mm 2 mps 699 mmHg 34%
    13:00 +32°C° 0 mm 2 mps 698 mmHg 36%
    14:00 +31°C° 0 mm 2 mps 698 mmHg 38%
    15:00 +31°C° 0 mm 2 mps 698 mmHg 39%
    16:00 +29°C° 0.2 mm 2 mps 698 mmHg 53%
    17:00 +26°C° 0.2 mm 1 mps 698 mmHg 67%
    18:00 +24°C° 0.2 mm 1 mps 698 mmHg 80%
    19:00 +23°C° 1.2 mm 1 mps 698 mmHg 83%
    20:00 +22°C° 1.2 mm 1 mps 698 mmHg 87%
    21:00 +21°C° 1.2 mm 1 mps 699 mmHg 90%
    22:00 +20°C° 0.9 mm 1 mps 699 mmHg 90%
    23:00 +20°C° 0.9 mm 1 mps 699 mmHg 91%

    Tomorrow, 19 August, Monday

    Time Temperature Precipitation Wind Pressure Humidity
    00:00 +19°C° 0.9 mm 2 mps 699 mmHg 92%
    01:00 +20°C° 1 mm 1 mps 699 mmHg 93%
    02:00 +19°C° 1 mm 1 mps 699 mmHg 94%
    03:00 +19°C° 1 mm 1 mps 699 mmHg 95%
    04:00 +19°C° 0.6 mm 1 mps 699 mmHg 94%
    05:00 +20°C° 0.6 mm 1 mps 699 mmHg 93%
    06:00 +20°C° 0.6 mm 1 mps 700 mmHg 92%
    07:00 +21°C° 0.5 mm 1 mps 700 mmHg 90%
    08:00 +21°C° 0.5 mm 1 mps 700 mmHg 89%
    09:00 +22°C° 0.5 mm 1 mps 700 mmHg 87%
    10:00 +23°C° 0.6 mm 1 mps 700 mmHg 83%
    11:00 +24°C° 0.6 mm 1 mps 700 mmHg 78%
    12:00 +25°C° 0.6 mm 1 mps 701 mmHg 74%
    13:00 +25°C° 0.8 mm 1 mps 700 mmHg 75%
    14:00 +25°C° 0.8 mm 1 mps 700 mmHg 77%
    15:00 +24°C° 0.8 mm 2 mps 700 mmHg 79%
    16:00 +23°C° 0.6 mm 1 mps 700 mmHg 83%
    17:00 +22°C° 0.6 mm 1 mps 700 mmHg 88%
    18:00 +21°C° 0.6 mm 1 mps 700 mmHg 92%
    19:00 +21°C° 0.7 mm 1 mps 700 mmHg 92%
    20:00 +20°C° 0.7 mm 1 mps 700 mmHg 92%
    21:00 +19°C° 0.7 mm 1 mps 701 mmHg 92%
    22:00 +19°C° 0.3 mm 1 mps 701 mmHg 92%
    23:00 +19°C° 0.3 mm 1 mps 701 mmHg 91%

    Day after tomorrow, 20 August, Tuesday

    Time Temperature Precipitation Wind Pressure Humidity
    00:00 +19°C° 0.3 mm 1 mps 701 mmHg 91%
    01:00 +19°C° 0.4 mm 1 mps 701 mmHg 92%
    02:00 +19°C° 0.4 mm 1 mps 701 mmHg 92%
    03:00 +19°C° 0.4 mm 1 mps 701 mmHg 93%
    04:00 +19°C° 0.2 mm 1 mps 701 mmHg 92%
    05:00 +19°C° 0.2 mm 1 mps 701 mmHg 92%
    06:00 +19°C° 0.2 mm 1 mps 701 mmHg 92%
    07:00 +20°C° 0.4 mm 1 mps 701 mmHg 91%
    08:00 +20°C° 0.4 mm 1 mps 701 mmHg 90%
    09:00 +21°C° 0.4 mm 1 mps 701 mmHg 88%
    10:00 +20°C° 0.9 mm 2 mps 701 mmHg 90%
    11:00 +20°C° 0.9 mm 2 mps 702 mmHg 91%
    12:00 +19°C° 0.9 mm 2 mps 702 mmHg 92%
    13:00 +18°C° 1.3 mm 2 mps 702 mmHg 94%
    14:00 +17°C° 1.3 mm 2 mps 702 mmHg 96%
    15:00 +16°C° 1.3 mm 2 mps 702 mmHg 98%
    16:00 +15°C° 0.9 mm 2 mps 702 mmHg 98%
    17:00 +15°C° 0.9 mm 2 mps 702 mmHg 98%
    18:00 +14°C° 0.9 mm 1 mps 702 mmHg 98%
    19:00 +14°C° 1.2 mm 1 mps 702 mmHg 98%
    20:00 +14°C° 1.2 mm 1 mps 702 mmHg 98%
    21:00 +14°C° 1.2 mm 1 mps 703 mmHg 98%
    22:00 +14°C° 0.6 mm 1 mps 703 mmHg 98%
    23:00 +14°C° 0.6 mm 1 mps 703 mmHg 98%

    21 August, Wednesday

    Time Temperature Precipitation Wind Pressure Humidity
    00:00 +14°C° 0.6 mm 1 mps 703 mmHg 98%
    01:00 +14°C° 0.2 mm 1 mps 702 mmHg 98%
    02:00 +14°C° 0.2 mm 1 mps 702 mmHg 97%
    03:00 +13°C° 0.2 mm 1 mps 702 mmHg 97%
    04:00 +14°C° 0 mm 1 mps 702 mmHg 96%
    05:00 +14°C° 0 mm 1 mps 703 mmHg 94%
    06:00 +15°C° 0 mm 1 mps 703 mmHg 93%
    07:00 +18°C° 0 mm 1 mps 703 mmHg 86%
    08:00 +20°C° 0 mm 1 mps 703 mmHg 79%
    09:00 +20°C° 0 mm 2 mps 703 mmHg 72%
    10:00 +21°C° 0 mm 2 mps 703 mmHg 70%
    11:00 +23°C° 0 mm 2 mps 703 mmHg 67%
    12:00 +24°C° 0 mm 2 mps 703 mmHg 64%
    13:00 +23°C° 0.1 mm 2 mps 702 mmHg 67%
    14:00 +23°C° 0.1 mm 2 mps 702 mmHg 70%
    15:00 +23°C° 0.1 mm 2 mps 702 mmHg 74%
    16:00 +20°C° 0.1 mm 2 mps 702 mmHg 80%
    17:00 +20°C° 0.1 mm 1 mps 702 mmHg 86%
    18:00 +19°C° 0.1 mm 1 mps 702 mmHg 92%
    19:00 +18°C° 0.1 mm 1 mps 702 mmHg 93%
    20:00 +18°C° 0.1 mm 1 mps 702 mmHg 94%
    21:00 +16°C° 0.1 mm 1 mps 702 mmHg 95%
    22:00 +16°C° 0 mm 1 mps 702 mmHg 94%
    23:00 +16°C° 0 mm 1 mps 702 mmHg 93%

    22 August, Thursday

    Time Temperature Precipitation Wind Pressure Humidity
    00:00 +16°C° 0 mm 1 mps 702 mmHg 92%
    01:00 +16°C° 0 mm 1 mps 702 mmHg 91%
    02:00 +16°C° 0 mm 1 mps 702 mmHg 90%
    03:00 +15°C° 0 mm 1 mps 702 mmHg 89%
    04:00 +16°C° 0 mm 1 mps 702 mmHg 88%
    05:00 +18°C° 0 mm 1 mps 702 mmHg 87%
    06:00 +18°C° 0 mm 1 mps 703 mmHg 85%
    07:00 +20°C° 0 mm 1 mps 703 mmHg 78%
    08:00 +22°C° 0 mm 1 mps 703 mmHg 70%
    09:00 +24°C° 0 mm 1 mps 704 mmHg 62%
    10:00 +25°C° 0 mm 1 mps 704 mmHg 61%
    11:00 +26°C° 0 mm 2 mps 703 mmHg 59%
    12:00 +26°C° 0 mm 2 mps 703 mmHg 58%
    13:00 +26°C° 0.2 mm 2 mps 703 mmHg 60%
    14:00 +26°C° 0.2 mm 2 mps 703 mmHg 62%
    15:00 +26°C° 0.2 mm 2 mps 703 mmHg 65%
    16:00 +24°C° 0.1 mm 2 mps 703 mmHg 74%
    17:00 +21°C° 0.1 mm 2 mps 702 mmHg 83%
    18:00 +21°C° 0.1 mm 1 mps 702 mmHg 92%
    19:00 +20°C° 0 mm 1 mps 702 mmHg 92%
    20:00 +19°C° 0 mm 1 mps 702 mmHg 93%
    21:00 +18°C° 0 mm 1 mps 703 mmHg 93%
    22:00 +18°C° 0 mm 1 mps 702 mmHg 92%
    23:00 +18°C° 0 mm 1 mps 702 mmHg 91%

    23 August, Friday

    Time Temperature Precipitation Wind Pressure Humidity
    00:00 +18°C° 0 mm 1 mps 702 mmHg 91%
    01:00 +16°C° 0 mm 1 mps 702 mmHg 90%
    02:00 +16°C° 0 mm 1 mps 702 mmHg 89%
    03:00 +16°C° 0 mm 1 mps 702 mmHg 89%
    04:00 +18°C° 0 mm 1 mps 702 mmHg 87%
    05:00 +18°C° 0 mm 1 mps 702 mmHg 85%
    06:00 +19°C° 0 mm 1 mps 702 mmHg 83%
    07:00 +22°C° 0 mm 1 mps 703 mmHg 73%
    08:00 +24°C° 0 mm 1 mps 703 mmHg 64%
    09:00 +27°C° 0 mm 1 mps 703 mmHg 54%
    10:00 +27°C° 0 mm 1 mps 703 mmHg 52%
    11:00 +28°C° 0 mm 1 mps 703 mmHg 50%
    12:00 +29°C° 0 mm 1 mps 703 mmHg 48%
    13:00 +29°C° 0.3 mm 1 mps 702 mmHg 53%
    14:00 +28°C° 0.3 mm 1 mps 702 mmHg 57%
    15:00 +27°C° 0.3 mm 1 mps 702 mmHg 62%
    16:00 +26°C° 0.4 mm 1 mps 701 mmHg 71%
    17:00 +24°C° 0.4 mm 1 mps 701 mmHg 79%
    18:00 +20°C° 0.4 mm 0 mps 701 mmHg 87%
    19:00 +21°C° 0 mm 1 mps 701 mmHg 87%
    20:00 +20°C° 0 mm 1 mps 701 mmHg 87%
    21:00 +19°C° 0 mm 1 mps 701 mmHg 87%
    22:00 +19°C° 0 mm 1 mps 701 mmHg 87%
    23:00 +19°C° 0 mm 1 mps 701 mmHg 86%
    Show more